Other Public Products
Issued by NWS Grand Forks, ND

Home | Current Version | Previous Version | Graphics & Text | Print | Product List | Glossary On
Versions: 1 2 3 4 5 6 7 8 9 10 11 12 13 14 15 16 17 18 19 20 21 22 23 24 25 26 27 28 29 30 31 32 33 34 35 36 37 38 39 40 41 42 43 44 45 46 47 48 49 50
000
FPUS83 KFGF 210910
OPUFGF
PRAIRIE TO PINES WEATHER ROUNDUP
NATIONAL WEATHER SERVICE EASTERN NORTH DAKOTA/GRAND FORKS ND
400 AM CDT SUN SEP 21 2014

 **SATELLITE DATA USED TO AUGMENT SKY COVER AT AUTOMATED STATIONS**
 *****  WEATHER ACROSS EASTERN NORTH DAKOTA  *****

CITY           SKY/WX    TMP DP  RH WIND       PRES   REMARKS
GRAND FORKS    CLEAR     49  47  93 W6        30.04R
GRAND FORKS AF CLEAR     50  50  99 NW7       30.06R
GRAND CITY NWS   N/A     50 N/A N/A NW5         N/A
BUXTON         NOT AVBL
DEVILS LAKE    CLEAR     48  43  81 NW9       30.09R
FARGO          PTCLDY    50  46  86 W9        30.05R
WAHPETON ARPT  SUNNY     50  45  81 NW8       30.05R
$$

 *****  WEATHER ACROSS CENTRAL AND WESTERN NORTH DAKOTA  *****

CITY           SKY/WX    TMP DP  RH WIND       PRES   REMARKS
JAMESTOWN      CLEAR     50  45  83 NW9       30.11R
BISMARCK       CLEAR     50  42  74 NW7       30.19R
MINOT          CLEAR     51  40  65 W14       30.15S
MINOT AFB      CLEAR     46  44  91 W10       30.15R
GARRISON         N/A     46  41  82 NW10      30.18R
WILLISTON      CLEAR     48  36  63 W7        30.23R
DICKINSON      CLEAR     41  34  76 W8        30.23R
HETTINGER      CLEAR     39  33  79 NW6       30.26R
$$

 *****  OTHER OBSERVATIONS NORTHEAST NORTH DAKOTA  *****

CITY           SKY/WX    TMP DP  RH WIND       PRES   REMARKS
WALHALLA       FAIR      50  50 100 NW8       30.07R
LANGDON        FAIR      46  45  93 NW8       30.08R
CAVALIER       FAIR      54  50  87 NW9       30.06R
GRAFTON        FAIR      50  50 100 NW10      30.04R
CANDO          CLOUDY    48  46  93 W6        30.12R
FORT TOTTEN      N/A     55  48  77 NW5       29.95S
ROLLA          CLOUDY    50  48  93 NW9       30.12R
RUGBY          FAIR      46  45  93 W5        30.13R
 ***** THE ABOVE OBSERVATIONS ARE NON NWS ARE NOT QUALITY
        CONTROLLED AND MAY MIS-REPORT RAIN FOR SNOW...
$$

 *****  OTHER OBSERVATIONS SOUTHEAST NORTH DAKOTA *****

CITY           SKY/WX    TMP DP  RH WIND       PRES   REMARKS
COOPERSTOWN    NOT AVBL
VALLEY CITY    FAIR      48  48 100 NW9       30.09R
OAKES            N/A     48  48 100 NW9       30.09R
GWINNER        SUNNY     52  46  82 NW6       30.09R
BUFFALO        NOT AVBL
WYNDMERE         N/A     52  48  87 NW6         N/A
 ***** THE ABOVE OBSERVATIONS ARE NON NWS ARE NOT QUALITY
       CONTROLLED AND MAY MIS-REPORT RAIN FOR SNOW...
$$

  *****  WEATHER ACROSS NORTHERN MINNESOTA  *****

CITY           SKY/WX    TMP DP  RH WIND       PRES   REMARKS
FLAG ISLAND    PTCLDY    52  50  93 NW8       29.97R
WARROAD        CLOUDY    52  46  82 CALM      30.00R
ROSEAU         CLOUDY    52  46  82 NW6       30.00R
HALLOCK        CLEAR     52  48  87 NW8       30.03R
THF RVR FALLS  CLOUDY    52  48  87 NW10      30.02R
HALSTAD          N/A     49  46  90 NW8         N/A
FOSSTON        CLOUDY    50  48  93 NW7       30.02R
BAUDETTE       MOCLDY    49  47  93 VRB3      29.98R
WASKISH        CLOUDY    50  48  93 CALM      29.98R
CROOKSTON      MOCLDY    52  48  87 NW8       30.04R
$$
  *****  WEATHER ACROSS CENTRAL AND WEST MINNESOTA  *****

CITY           SKY/WX    TMP DP  RH WIND       PRES   REMARKS
BEMIDJI        CLOUDY    49  48  96 NW7       29.99R
PARK RAPIDS    PTCLDY    49  47  93 NW8       29.99R
WADENA         MOCLDY    48  48 100 NW7       30.00R
DETROIT LAKES  CLOUDY    52  50  93 N14G21    30.02R
MOORHEAD       MOCLDY    54  52  94 NW9       30.05R
FERGUS FALLS   PTCLDY    50  48  93 NW10      30.03S
ELBOW LAKE     FAIR      51  49  93 NW10      30.02R
MORRIS MN      CLEAR     52  48  87 NW10      30.02R
STAPLES        PTCLDY    48  46  93 NW6       29.99R
WHEATON        CLEAR     52  46  82 NW8       30.06R
$$
  *****  WEATHER ELSEWHERE ACROSS MINNESOTA  *****

CITY           SKY/WX    TMP DP  RH WIND       PRES   REMARKS
DULUTH         LGT RAIN  53  50  89 N10       29.86R
INTRNTL FALLS  CLOUDY    48  47  96 NW8       29.94R
ELY            CLOUDY    48  46  93 N6        29.88R
CLOQUET        CLOUDY    52  48  87 NW13      29.87R
BRAINERD       MOCLDY    50  46  86 NW12      29.96R
HIBBING        CLOUDY    52  49  89 NW14      29.90R
ALEXANDRIA     CLEAR     51  49  92 NW13      30.01R
SAINT CLOUD    PTCLDY    54  47  77 NW16G22   29.95R
MINNEAPOLIS    PTCLDY    54  46  74 NW17G28   29.91R
$$

  *****  WEATHER ACROSS SOUTH DAKOTA  *****

CITY           SKY/WX    TMP DP  RH WIND       PRES   REMARKS
SIOUX FALLS    CLEAR     53  43  68 W9        30.08R
BROOKINGS      NOT AVBL
WATERTOWN      CLEAR     52  45  77 NW14      30.07R
HURON          CLEAR     50  40  68 NW9       30.12R
SISSETON         N/A     52  48  86 N10       30.06R
ABERDEEN       CLEAR     54  43  66 NW14      30.11R
MITCHELL       CLEAR     54  42  64 NW9       30.13R
PIERRE         CLEAR     50  43  77 NW9       30.19R
MOBRIDGE       CLEAR     50  44  80 NW8       30.16R
RAPID CITY     CLEAR     49  37  63 NW9       30.31S
$$

  *****  SOME WEATHER IN NEARBY STATES *****

CITY           SKY/WX    TMP DP  RH WIND       PRES   REMARKS
GLASGOW MT     CLEAR     45  36  70 CALM      30.26S
GREAT FALLS MT CLEAR     44  41  89 W3        30.26S
CHEYENNE WY    CLOUDY    56  38  50 SE7       30.41S
SCOTTSBLUFF NE MOCLDY    52  43  71 CALM      30.34R
OMAHA NE       CLEAR     57  50  77 NW6       30.09R
DES MOINES IA  CLEAR     56  51  84 W8        29.99F
DAVENPORT IA   CLEAR     53  50  89 W8        29.90S
CHICAGO IL     PTCLDY    62  55  77 W16G25    29.76R
EAU CLAIRE WI  CLOUDY    52  49  89 W14       29.79R
LA CROSSE WI   MOCLDY    60  49  66 NW17G30   29.80R
$$

  *****  SOME NATIONAL WEATHER *****

CITY           SKY/WX    TMP DP  RH WIND       PRES   REMARKS
LA GUARDIA NY  CLOUDY    66  64  94 E3        29.93F
RALEIGH NC     PTCLDY    64  61  90 N3        29.91F
ATLANTA GA     CLEAR     65  60  84 NW5       30.01F
NEW ORLEANS LA CLEAR     77  70  79 NE8       29.96S
OKLAHOMA CITY  PTCLDY    69  65  86 CALM      30.06S
ALBUQUERQUE NM PTCLDY    69  57  65 E10       30.23F
SALT LAKE CITY CLOUDY    66  49  54 CALM      30.07S
LOS ANGELES CA PTCLDY    67  63  87 W3        29.95S
BOISE ID       PTCLDY    63  44  50 SE3       30.02S
SEATTLE WA     CLEAR     59  54  83 N5        29.89S
$$

*** WEATHER ACROSS MANITOBA...SASKATCHEWAN AND ONTARIO ***
                ***ONTARIO***

CITY           SKY/WX    TMP DP  RH WIND       PRES   REMARKS
GERALDTON      CLOUDY    39  37  93 N9        29.85R
THUNDER BAY    CLOUDY    48  39  71 NE6       29.85R
SIOUX LOOKOUT  PTCLDY    39  37  93 N5        29.96R
TORONTO        CLOUDY    66  61  82 SW9       29.68F
BIG TROUT LK   CLOUDY    39  36  87 N5        29.97R
PICKLE LAKE    NOT AVBL
DRYDEN         MOCLDY    43  41  93 N7        29.96R
KENORA         PTCLDY    48  48 100 N5        29.98R
$$
                *** MANITOBA***

CITY           SKY/WX    TMP DP  RH WIND       PRES   REMARKS
BRANDON        MOCLDY    48  46  93 W9        30.12R
DAUPHIN        CLOUDY    54  50  87 W8        30.10R
ISLAND LAKE    PTCLDY    41  37  87 CALM      30.03R
PILOT MOUND    NOT AVBL
THE PAS        PTCLDY    48  48 100 W6        30.08R
THOMPSON       PTCLDY    28  28 100 W2        30.02S
WINNIPEG       PTCLDY    48  48 100 NW9       30.05R
LYNN LAKE      CLOUDY    46  45  93 SW7       29.98S
CHURCHILL      CLEAR     32  30  93 SW5       29.99R
GILLAM         CLEAR     27  27 100 S5        30.02S WCI  21
$$
                ***SASKATCHEWAN***

CITY           SKY/WX    TMP DP  RH WIND       PRES   REMARKS
ESTEVAN        NOT AVBL
KINDERSLEY     CLEAR     43  39  87 S8        30.19F
LLOYDMINSTER   CLEAR     50  37  62 SW10      30.11F
PRINCE ALBERT  FOG       36  36 100 W2        30.12S VSB 3/8
REGINA         CLEAR     41  39  93 CALM      30.20R
YORKTON        CLEAR     45  43  93 W9        30.15R


USA.gov is the U.S. government's official web portal to all federal, state and local government web resources and services.